Tracking 21611 objects as of 21-Oct-2020
HD Live streaming from Space Station
objects crossing your sky now

FORMOSAT 3E

Track FORMOSAT 3E now!
10-day predictions
FORMOSAT 3E is classified as:


NORAD ID: 29051
Int'l Code: 2006-011E
Perigee: 755.1 km
Apogee: 850.5 km
Inclination: 72.0 °
Period: 100.8 minutes
Semi major axis: 7173 km
RCS: 0.58 m2 (medium)
Launch date: April 15, 2006
Source: Taiwan (Republic of China) (ROC)
Launch site: AIR FORCE WESTERN TEST RANGE (AFWTR)
aabbcc
Your satellite tracking list
Your tracking list is empty




NASA's NSSDC Master Catalog

Two Line Element Set (TLE):
1 29051U 06011E   20294.46628321 +.00000122 +00000-0 +62967-4 0  9993
2 29051 072.0060 199.7670 0066488 068.0948 292.7239 14.28837044760042
Source of the keplerian elements: AFSPC